Flag for Germany Weather past 2 weeks in Dreieich, Hesse, Germany

Now
84 °F

Scattered clouds.


Feels Like: 83 °F
Forecast: 65 / 75 °F
Wind: 2 mph from East

Location: Frankfurt / M-Flughafen

Current Time: Jul 28, 2014 at 3:48:23 PM

Latest Report: Jul 28, 2014 at 3:00 PM


Visibility: 22 mi

Pressure: 29.80 "Hg

Humidity: 42%

Dew point: 58 °F

Location of DreieichLocation

Historic Weather in Dreieich — Graph

°F

Dreieich temperature yesterday

Maximum temperature yesterday: 83 °F (at 6:00 PM)
Minimum temperature yesterday: 64 °F (at 6:00 AM)
Average temperature yesterday: 75 °F

Past Weeks' High & Low Weather Summary

 TemperatureHumidityPressure
High93 °F (Jul 19, 5:00 PM)93% (Jul 21, 12:00 AM)30.19 "Hg (Jul 21, 12:00 AM)
Low59 °F (Jul 26, 5:00 AM)22% (Jul 18, 6:00 PM)29.76 "Hg (Jul 13, 6:00 PM)
Average73 °F63%29.96 "Hg
* Reported Jul 13 2:00 PM — Jul 28 2:00 PM, Dreieich, Weather by CustomWeather, © 2014

Note: Actual official high and low records may vary slightly from our data, if they occured in-between our weather recording intervals... More about our weather records

Advertising

Dreieich weather history for previous 24 hours

 ConditionsComfort  
Time TempWeatherWind HumidityBarometerVisibility
2:00 PM
Jul 28
82 °FScattered clouds.2 mph45%29.82 "Hg22 mi
1:00 PM80 °FOvercast.2 mph45%29.84 "Hg19 mi
12:00 PM79 °FScattered clouds.1 mph56%29.85 "Hg11 mi
11:00 AM76 °FMild.1 mph64%29.87 "HgN/A
10:00 AM73 °FScattered clouds.1 mph73%29.89 "Hg9 mi
9:00 AM69 °FScattered clouds.2 mph80%29.90 "Hg9 mi
8:00 AM68 °FScattered clouds.2 mph79%29.90 "Hg7 mi
7:00 AM66 °FScattered clouds.2 mph87%29.91 "Hg5 mi
6:00 AM65 °FPassing clouds.1 mph90%29.91 "Hg6 mi
4:00 AM67 °FPassing clouds.1 mph86%29.92 "Hg16 mi
3:00 AM66 °FPassing clouds.1 mph87%29.93 "Hg19 mi
2:00 AM67 °FPassing clouds.1 mph83%29.95 "Hg19 mi
1:00 AM69 °FPassing clouds.No wind77%29.96 "Hg19 mi
12:00 AM71 °FPassing clouds.1 mph69%29.95 "Hg19 mi
10:00 PM
Jul 27
75 °FPassing clouds.2 mph58%29.96 "Hg22 mi
9:00 PM78 °FPartly sunny.3 mph52%29.94 "Hg22 mi
8:00 PM80 °FScattered clouds.5 mph47%29.94 "Hg22 mi
7:00 PM82 °FScattered clouds.5 mph42%29.92 "Hg22 mi
6:00 PM83 °FScattered clouds.5 mph39%29.92 "Hg22 mi
5:00 PM83 °FScattered clouds.5 mph42%29.93 "Hg19 mi
4:00 PM83 °FPassing clouds.5 mph41%29.94 "Hg19 mi
3:00 PM83 °FPassing clouds.3 mph43%29.96 "Hg19 mi
Weather by CustomWeather, © 2014

See weather overviewHow to use our weather pages